Meteo Giornale » Osservazioni meteo Stati Uniti (USA) » Pioneer Airfield
ore: 22:56 - Osservazioni Meteo Pioneer Airfield
Lat. 31° 36' N Lon. 110° 26' W Alt. 1453 metri s.l.m.
19 °C
Sereno
Temp. 24 Ore
17 °C
24 °C
Nord
0 Km/h
Dew point 17 °C
Umidità 88 %
Visibilità 10 Km
Il sole sorge alle ore 05:57
Il sole tramonta alle ore 18:46
| Data e Ora | Cielo e Fenomeni | T °C | DP °C | Um. % | Pres. hPa | Vis. km | Vento km/h | |
|---|---|---|---|---|---|---|---|---|
| Oggi h: 22:56 | Sereno | 19 | 17 | 88 | 1022 | 10 | N 0 | |
| Oggi h: 21:56 | Sereno | 19 | 17 | 88 | 1022 | 10 | N 5.5 | |
| Oggi h: 20:56 | Sereno | 19 | 18 | 93 | 1022 | 10 | N 0 | |
| Oggi h: 19:56 | Poco Nuvoloso | 20 | 17 | 82 | 1022 | 10 | N 5.5 | |
| Oggi h: 18:56 | Coperto | 20 | 17 | 82 | 1021 | 10 | N 0 | |
| Oggi h: 17:56 | Poco Nuvoloso | 20 | 17 | 82 | 1020 | 10 | N 0 | |
| Oggi h: 16:56 | Sereno | 19 | 16 | 82 | 1020 | 10 | E/NE 7.4 | |
| Oggi h: 15:56 | Nuvoloso | 19 | 16 | 82 | 1021 | 10 | E/SE 20.3 | |
| Oggi h: 14:56 | Nuvoloso | 19 | 17 | 88 | 1022 | 10 | E 16.7 | |
| Oggi h: 13:56 | Coperto | 18 | 16 | 88 | 1024 | 10 | N 5.5 | |
| Oggi h: 13:36 | Pioggia | 17 | 16 | 93 | 1024 | 10 | N/NO 13 | |
| Oggi h: 13:29 | Pioggia Foschia | 17 | 16 | 93 | 1024 | 2 | N 14.8 | |
| Oggi h: 13:26 | Pioggia Foschia | 17 | 17 | 100 | 1024 | 5 | N 9.3 | |
| Oggi h: 13:21 | Pioggia Foschia | 17 | 17 | 100 | 1025 | 2 | N 0 | |
| Oggi h: 13:07 | Pioggia Foschia | 17 | 16 | 93 | 1024 | 2 | NO 11.1 | |
| Oggi h: 13:00 | Pioggia Nebbia | 17 | 16 | 93 | 1024 | 2 | O/NO 27.8 | |
| Oggi h: 12:56 | Pioggia Foschia | 17 | 16 | 93 | 1024 | 5 | NO 33.3 | |
| Oggi h: 12:54 | Pioggia Foschia | 17 | 16 | 93 | 1024 | 2 | NO 37 | |
| Oggi h: 12:52 | Pioggia Foschia | 17 | 16 | 93 | 1025 | 3 | O/NO 35.2 | |
| Oggi h: 12:43 | Pioggia | 18 | 16 | 88 | 1024 | 10 | O/NO 24 | |
| Oggi h: 12:16 | Coperto | 21 | 16 | 73 | 1024 | 10 | O/NO 29.6 | |
| Oggi h: 11:56 | Molto Nuvoloso | 21 | 17 | 77 | 1023 | 10 | NO 24 | |
| Oggi h: 10:56 | Sereno | 24 | 16 | 60 | 1023 | 10 | E 13 | |
| Oggi h: 09:56 | Molto Nuvoloso | 22 | 17 | 73 | 1023 | 10 | E/NE 11.1 | |
| Oggi h: 08:56 | Sereno | 21 | 17 | 77 | 1022 | 10 | N 5.5 | |
| Oggi h: 07:56 | Sereno | 19 | 17 | 88 | 1023 | 10 | N 0 | |
| Oggi h: 06:56 | Molto Nuvoloso | 19 | 16 | 82 | 1023 | 10 | N 5.5 | |
| Oggi h: 05:56 | Poco Nuvoloso | 19 | 17 | 88 | 1022 | 10 | O/NO 9.3 | |
| Oggi h: 04:56 | Poco Nuvoloso | 19 | 18 | 93 | 1020 | 10 | S 11.1 | |
| Oggi h: 03:56 | Sereno | 19 | 17 | 88 | 1021 | 10 | N/NE 9.3 | |
| Oggi h: 02:56 | Molto Nuvoloso | 20 | 18 | 88 | 1020 | 10 | E 13 | |
| Oggi h: 01:56 | Pioggia | 20 | 17 | 82 | 1021 | 14 | O/NO 11.1 | |
| Oggi h: 00:56 | Molto Nuvoloso | 21 | 16 | 73 | 1021 | 10 | E/SE 18.5 | |
| Ieri h: 23:56 | Sereno | 22 | 17 | 73 | 1021 | 10 | O/SO 16.7 | |



